Miscellaneous Local Product
Issued by NWS Hastings, NE

Home | Current Version | Previous Version | Graphics & Text | Print | Product List | Glossary On
Versions: 1 2 3 4 5 6 7 8 9 10 11 12 13 14 15 16 17 18 19 20 21 22 23 24 25 26 27 28 29 30 31 32 33 34 35 36 37 38 39 40 41 42 43 44 45 46 47 48 49 50
000
AXUS43 KGID 200702
MISGRI

GID CWA HOURLY WEATHER ROUNDUP
NATIONAL WEATHER SERVICE HASTINGS NE
200 AM CDT MON OCT 20 2014

NOTE: "FAIR" INDICATES FEW OR NO CLOUDS BELOW 12,000 FEET WITH NO
SIGNIFICANT WEATHER AND/OR OBSTRUCTIONS TO VISIBILITY.

...SOUTH CENTRAL NEBRASKA...

CITY           SKY/WX    TMP DP  RH WIND       PRES   REMARKS
GRAND ISLAND   FAIR      47  44  90 W6        30.03R
HASTINGS       FAIR      49  43  80 W6        30.03R
KEARNEY        FAIR      46  41  81 W7        30.05R
ORD            CLEAR     41  37  86 NW5       30.04R
YORK           FAIR      46  45  93 W8        30.01R
AURORA         FAIR      48  45  88 W5        30.02R
LEXINGTON      CLEAR     42  40  93 NW7       30.07R
HOLDREGE       FAIR      45  42  90 CALM      30.05R
HEBRON         FAIR      44  42  92 CALM      30.02R

...NEBRASKA PANHANDLE...

CITY           SKY/WX    TMP DP  RH WIND       PRES   REMARKS
CHADRON        CLEAR     41  37  86 CALM      30.10R
ALLIANCE       CLEAR     34  32  92 CALM      30.13R
SCOTTSBLUFF    CLEAR     42  35  76 N3        30.13R
SIDNEY         CLEAR     38  33  82 SW5       30.15R WCI  34

...WESTERN AND NORTH CENTRAL NEBRASKA...

CITY           SKY/WX    TMP DP  RH WIND       PRES   REMARKS
VALENTINE      CLEAR     42  35  76 W7        30.08R
AINSWORTH      CLEAR     44  37  74 W5        30.08R
ONEILL         CLEAR     46  40  77 NW8       30.05R
BROKEN BOW     CLEAR     41  35  79 CALM      30.06R
IMPERIAL       CLEAR     46  37  71 W5        30.10R
NORTH PLATTE   CLEAR     39  36  89 W5        30.09R
MCCOOK         CLEAR     42  39  89 W5        30.08R

...EASTERN NEBRASKA...

CITY           SKY/WX    TMP DP  RH WIND       PRES   REMARKS
NORFOLK        FAIR      47  40  76 W6        30.00R
SO SIOUX CITY  FAIR      45  42  89 N6        29.98R
TEKAMAH        FAIR      46  42  86 NW5       29.97R
COLUMBUS       FAIR      45  37  76 W3        30.01R
ALBION         FAIR      43  38  82 NW7       30.02R
OMAHA EPPLEY   FAIR      52  47  83 CALM      29.97R
OFFUTT AFB     FAIR      50  50  99 NW7       29.96R
MILLARD        FAIR      51  48  89 CALM      29.96R
LINCOLN        FAIR      53  47  79 SW3       30.01R
NEBRASKA CITY  FAIR      54  46  74 W10       29.98R
BEATRICE       FAIR      48  45  89 CALM      30.01R
FALLS CITY     FAIR      53  48  83 CALM      29.99R

...NORTHERN KANSAS...

CITY           SKY/WX    TMP DP  RH WIND       PRES   REMARKS
GOODLAND       CLEAR     43  39  86 W6        30.13R
HILL CITY      FAIR      44  41  89 W3        30.06R
NORTON         SUNNY     39  36  87 W6        30.05R WCI  35
PHILLIPSBURG   CLEAR     46  45  93 W6        30.05R
SMITH CENTER   CLEAR     48  46  93 N3        30.04S
BELOIT         CLEAR     46  46 100 CALM      30.02R
HAYS           FAIR      52  45  76 NE3       30.03R
RUSSELL        FAIR      53  49  86 NE5       30.01S
CONCORDIA      FAIR      52  50  93 W5        30.02R
SALINA         FAIR      53  49  86 CALM      30.02S
TOPEKA         FAIR      53  49  86 CALM      30.02R



USA.gov is the U.S. government's official web portal to all federal, state and local government web resources and services.